* Astronomy

Members Login
Post Info TOPIC: Comet C/2010 E3 (WISE)


L

Posts: 131433
Date:
Comet C/2010 E3 (WISE)
Permalink  
 


Orbital elements:
C/2010 E3 (WISE)
T 2010 Apr. 4.326 TT MPC
q 2.27420 (2000.0) P Q
Peri. 49.974 -0.218474 +0.416021
Node 117.328 +0.257963 -0.847773
e 1.0 Incl. 96.480 +0.941129 +0.328949
From 26 observations 2010 Mar. 5-15.

MPEC 2010 - F01


Comet C/2010 E3 (WISE) was discovered by the Wide-field Infrared Survey Explorer (WISE) mission.
The preliminary orbital elements of the comet indicate a perihelion passage on the 4th April, 2010, at a distance of approximately 2.27 AU from the Sun.

__________________
Page 1 of 1  sorted by
Quick Reply

Please log in to post quick replies.



Create your own FREE Forum
Report Abuse
Powered by ActiveBoard